FW0754 Weather Reports


time (UTC)temp
C
wind
direction
speed
KPH
gust
KPH
rain 1hr
cm
rain 24hr
cm
rain mn
cm
humidity
%
barometer
mb
20200229104616 14 45 1.6 1.6 0.00 0.00 0.00 85 1022.7
20200229103616 13 45 1.6 3.2 0.00 0.00 0.00 84 1023.2
20200229102616 13 45 1.6 3.2 0.00 0.00 0.00 85 1023.1
20200229101616 13 0.0 0.0 0.00 0.00 0.00 86 1023.3
20200229100616 13 0.0 0.0 0.00 0.00 0.00 88 1023.4
20200229095616 13 45 1.6 3.2 0.00 0.00 0.00 88 1023.4
20200229094616 13 45 1.6 3.2 0.00 0.00 0.00 88 1024.0
20200229093616 13 0.0 3.2 0.00 0.00 0.00 87 1024.0
20200229092616 12 0.0 0.0 0.00 0.00 0.00 86 1024.2
20200229091616 13 0.0 0.0 0.00 0.00 0.00 85 1024.2
20200229090617 13 0.0 0.0 0.00 0.00 0.00 84 1024.2
20200229085616 13 0.0 0.0 0.00 0.00 0.00 84 1024.4
20200229084616 13 0.0 0.0 0.00 0.00 0.00 83 1024.7
20200229083617 13 0.0 1.6 0.00 0.00 0.00 82 1024.8
20200229082616 14 337 1.6 1.6 0.00 0.00 0.00 81 1025.0
20200229081616 13 337 1.6 3.2 0.00 0.00 0.00 81 1025.3
20200229080617 14 337 1.6 3.2 0.00 0.00 0.00 81 1025.4
20200229075616 14 337 1.6 1.6 0.00 0.00 0.00 80 1025.6
20200229074617 14 315 1.6 1.6 0.00 0.00 0.00 81 1025.8
20200229073616 14 315 3.2 4.8 0.00 0.00 0.00 83 1026.0
20200229072616 14 315 4.8 6.4 0.00 0.00 0.00 83 1026.1
20200229071616 14 315 4.8 8.0 0.00 0.00 0.00 85 1026.1
20200229070616 13 292 4.8 8.0 0.00 0.00 0.00 86 1026.0
20200229065616 13 292 3.2 3.2 0.00 0.00 0.00 88 1026.0
20200229064617 13 0.0 0.0 0.00 0.00 0.00 86 1025.7
20200229063616 13 0.0 1.6 0.00 0.00 0.00 85 1025.8
20200229062616 13 0.0 0.0 0.00 0.00 0.00 85 1025.7
20200229061616 13 0.0 0.0 0.00 0.00 0.00 84 1025.7
20200229060616 13 0.0 0.0 0.00 0.00 0.00 82 1025.7
20200229055615 14 0.0 1.6 0.00 0.00 0.00 82 1025.6
20200229054616 14 337 1.6 3.2 0.00 0.00 0.00 81 1025.2
20200229053616 14 0.0 1.6 0.00 0.00 0.00 80 1025.2
20200229052616 15 0.0 0.0 0.00 0.00 0.00 78 1025.1
20200229051616 15 0.0 0.0 0.00 0.00 0.00 77 1025.1
20200229050616 15 0.0 1.6 0.00 0.00 0.00 75 1024.9
20200229045615 16 0.0 0.0 0.00 0.00 0.00 72 1024.6
20200229044616 16 337 1.6 1.6 0.00 0.00 0.00 69 1024.9
20200229043616 17 0.0 0.0 0.00 0.00 0.00 67 1024.9
20200229042615 17 0.0 1.6 0.00 0.00 0.00 66 1025.0
20200229041617 17 337 3.2 4.8 0.00 0.00 0.00 65 1025.1
20200229040616 16 315 1.6 3.2 0.00 0.00 0.00 68 1025.2
20200229035615 16 315 4.8 6.4 0.00 0.00 0.00 72 1025.5
20200229034615 17 292 3.2 4.8 0.00 0.00 0.00 70 1025.6
20200229033615 17 292 3.2 4.8 0.00 0.00 0.00 68 1025.3
20200229032616 17 292 3.2 3.2 0.00 0.00 0.00 69 1025.0
20200229031617 17 292 3.2 4.8 0.00 0.00 0.00 69 1025.0
20200229030616 17 315 3.2 4.8 0.00 0.00 0.00 68 1024.9
20200229025618 18 292 3.2 4.8 0.00 0.00 0.00 65 1024.7
20200229024626 18 292 3.2 3.2 0.00 0.00 0.00 62 1024.6
20200229023616 19 292 4.8 6.4 0.00 0.00 0.00 61 1024.6
20200229022615 20 315 3.2 4.8 0.00 0.00 0.00 60 1024.6
20200229011618 23 315 4.8 9.7 0.00 0.00 0.00 54 1024.6
20200229010619 24 292 9.7 14.5 0.00 0.00 0.00 53 1024.5
20200229005618 25 292 6.4 9.7 0.00 0.00 0.00 54 1024.5
20200229004615 26 315 6.4 12.9 0.00 0.00 0.00 54 1024.4
20200229003617 26 270 6.4 11.3 0.00 0.00 0.00 54 1024.4
20200229002615 27 270 8.0 11.3 0.00 0.00 0.00 52 1024.2
20200229001618 27 270 6.4 11.3 0.00 0.00 0.00 51 1024.2
20200229000616 28 270 9.7 16.1 0.00 0.00 0.00 48 1024.4
20200228235617 28 270 9.7 14.5 0.00 0.00 0.00 46 1023.9
20200228234617 28 270 8.0 14.5 0.00 0.00 0.00 47 1023.9
20200228233617 29 247 8.0 12.9 0.00 0.00 0.00 46 1023.8
20200228232617 29 247 6.4 11.3 0.00 0.00 0.00 45 1023.7
20200228231617 30 225 9.7 16.1 0.00 0.00 0.00 43 1024.0
20200228230617 30 247 8.0 16.1 0.00 0.00 0.00 42 1024.0
20200228225617 30 270 8.0 11.3 0.00 0.00 0.00 37 1024.0
20200228224617 30 292 6.4 9.7 0.00 0.00 0.00 33 1023.9
20200228223617 30 292 6.4 12.9 0.00 0.00 0.00 34 1023.8
20200228222617 30 270 6.4 11.3 0.00 0.00 0.00 34 1023.7
20200228221617 30 292 3.2 6.4 0.00 0.00 0.00 35 1023.7
20200228220617 30 292 8.0 11.3 0.00 0.00 0.00 37 1023.6
20200228215617 30 270 6.4 11.3 0.00 0.00 0.00 39 1023.7
20200228214617 30 315 6.4 11.3 0.00 0.00 0.00 39 1023.6
20200228213617 30 270 4.8 9.7 0.00 0.00 0.00 40 1023.8
20200228212617 30 247 6.4 11.3 0.00 0.00 0.00 43 1024.0
20200228211617 30 292 4.8 8.0 0.00 0.00 0.00 40 1024.1
20200228210617 30 270 6.4 14.5 0.00 0.00 0.00 42 1024.2
20200228205617 30 270 4.8 6.4 0.00 0.00 0.00 42 1024.4
20200228204617 29 270 4.8 6.4 0.00 0.00 0.00 42 1024.5
20200228203617 30 225 3.2 6.4 0.00 0.00 0.00 40 1024.6
20200228202617 30 157 1.6 3.2 0.00 0.00 0.00 40 1024.7
20200228201617 29 315 1.6 3.2 0.00 0.00 0.00 41 1024.7
20200228200617 28 247 3.2 4.8 0.00 0.00 0.00 43 1024.9
20200228195617 28 247 3.2 4.8 0.00 0.00 0.00 46 1025.1
20200228194617 28 292 3.2 4.8 0.00 0.00 0.00 45 1025.4
20200228193617 27 315 3.2 6.4 0.00 0.00 0.00 46 1025.5
20200228192617 27 337 4.8 6.4 0.00 0.00 0.00 47 1025.9
20200228191617 27 292 3.2 4.8 0.00 0.00 0.00 48 1026.4
20200228190617 26 315 3.2 4.8 0.00 0.00 0.00 51 1026.5
20200228185617 26 202 1.6 4.8 0.00 0.00 0.00 52 1026.6
20200228184617 25 247 4.8 6.4 0.00 0.00 0.00 53 1026.6
20200228183617 25 270 4.8 9.7 0.00 0.00 0.00 54 1026.9
20200228182618 25 292 4.8 6.4 0.00 0.00 0.00 55 1026.9
20200228181617 24 270 4.8 6.4 0.00 0.00 0.00 57 1026.8
20200228180617 23 247 3.2 6.4 0.00 0.00 0.00 57 1026.9
20200228175617 23 292 3.2 6.4 0.00 0.00 0.00 61 1027.0
20200228174617 22 270 3.2 4.8 0.00 0.00 0.00 59 1027.2
20200228173617 22 292 3.2 4.8 0.00 0.00 0.00 61 1027.2
20200228172617 22 270 4.8 6.4 0.00 0.00 0.00 63 1027.3
20200228171617 22 247 3.2 4.8 0.00 0.00 0.00 64 1027.2
20200228170622 21 292 3.2 4.8 0.00 0.00 0.00 63 1027.0
20200228165616 21 315 3.2 4.8 0.00 0.00 0.00 64 1026.9
20200228164617 20 315 4.8 6.4 0.00 0.00 0.00 69 1027.0
20200228163617 20 315 3.2 4.8 0.00 0.00 0.00 71 1026.8
20200228162617 19 337 3.2 4.8 0.00 0.00 0.00 73 1026.8
20200228161617 18 292 3.2 6.4 0.00 0.00 0.00 75 1026.7
20200228160617 17 315 3.2 6.4 0.00 0.00 0.00 76 1026.6
20200228155616 17 315 3.2 4.8 0.00 0.00 0.00 76 1026.6
20200228154617 17 315 3.2 3.2 0.00 0.00 0.00 82 1026.6
20200228153617 16 292 3.2 4.8 0.00 0.00 0.00 82 1026.4
20200228152617 16 315 3.2 4.8 0.00 0.00 0.00 84 1026.4
20200228151617 14 315 1.6 3.2 0.00 0.00 0.00 87 1026.4
20200228150617 13 337 3.2 4.8 0.00 0.00 0.00 90 1026.3
20200228145617 11 337 1.6 4.8 0.00 0.00 0.00 90 1026.2
20200228144616 10 315 1.6 4.8 0.00 0.00 0.00 92 1026.0
20200228143617 9 0.0 1.6 0.00 0.00 0.00 93 1026.0
20200228142617 8 315 3.2 3.2 0.00 0.00 0.00 93 1026.0
20200228141617 8 315 1.6 1.6 0.00 0.00 0.00 93 1025.8
20200228140617 8 0.0 0.0 0.00 0.00 0.00 93 1025.8
20200228135616 8 0.0 0.0 0.00 0.00 0.00 92 1025.8
20200228134616 8 315 1.6 3.2 0.00 0.00 0.00 92 1025.6
20200228133616 8 0.0 0.0 0.00 0.00 0.00 91 1025.4
20200228132617 8 0.0 0.0 0.00 0.00 0.00 91 1025.6
20200228131617 8 0.0 1.6 0.00 0.00 0.00 90 1025.5
20200228130617 9 315 1.6 3.2 0.00 0.00 0.00 91 1025.4
20200228125617 9 315 1.6 3.2 0.00 0.00 0.00 91 1025.4
20200228124616 10 315 1.6 1.6 0.00 0.00 0.00 92 1025.3
20200228123617 9 0.0 0.0 0.00 0.00 0.00 92 1025.4
20200228122616 9 0.0 0.0 0.00 0.00 0.00 92 1025.4
20200228121616 9 0.0 0.0 0.00 0.00 0.00 92 1025.1
20200228120616 9 315 1.6 1.6 0.00 0.00 0.00 92 1024.9
20200228115618 9 315 1.6 1.6 0.00 0.00 0.00 92 1024.7
20200228114616 9 0.0 0.0 0.00 0.00 0.00 92 1024.8
20200228113616 10 315 1.6 3.2 0.00 0.00 0.00 93 1024.9
20200228112616 9 0.0 0.0 0.00 0.00 0.00 92 1024.8
20200228111616 9 0.0 0.0 0.00 0.00 0.00 92 1024.7
20200228110616 10 0.0 0.0 0.00 0.00 0.00 92 1024.8
20200228105617 10 0.0 0.0 0.00 0.00 0.00 92 1024.7